Weather History for Zanesville, OH

Change the Weather History Date:

Tuesday, December 4, 2012

  Actual Average Record
Temperature  
Mean Temperature 52 °F 36 °F  
Max Temperature 62 °F 44 °F 69 °F (1982)
Min Temperature 41 °F 28 °F 3 °F (1966)
Degree Days  
Heating Degree Days 13 29  
Month to date heating degree days 53 114  
Since 1 July heating degree days 1326 1255  
Cooling Degree Days 0 0  
Month to date cooling degree days 0 0  
Year to date cooling degree days 980 768  
Growing Degree Days 2 (Base 50)    
Moisture  
Dew Point 49 °F    
Average Humidity 84    
Maximum Humidity 96    
Minimum Humidity 72    
Precipitation  
Precipitation 0.78 in 0.09 in 0.86 in (1964)
Month to date precipitation 1.16 0.35  
Year to date precipitation 31.89 35.63  
Sea Level Pressure  
Sea Level Pressure 30.09 in    
Wind  
Wind Speed 8 mph (SW)    
Max Wind Speed 18 mph    
Max Gust Speed 26 mph    
Visibility 8 miles    
Events Rain    
T = Trace of Precipitation, MM = Missing Value Source: NWS Daily Summary

Daily Weather History Graph

Daily Weather History Graph

Search for Another Location

Airport:

Trip Planner

Search our weather history database for the weather conditions in past years. The results will help you decide how hot, cold, wet, or windy it might be!

Date:

Astronomy

Dec. 04, 2012 Rise Set
Actual Time 7:33 AM EST 5:02 PM EST
Civil Twilight 7:03 AM EST 5:32 PM EST
Nautical Twilight 6:29 AM EST 6:06 PM EST
Astronomical Twilight 5:56 AM EST 6:39 PM EST
Moon 10:48 PM EST (12/4) 11:27 AM EST (12/4)
Length of Visible Light 10h 29m
Length of Day
9h 29m
Waning Gibbous, 69% of the Moon is Illuminated
Dec 4
Waning Gibbous
Dec 6
Last Quarter
Dec 13
New
Dec 20
First Quarter
Dec 28
Full

Hourly Weather History & Observations

Time (EST) Temp. Windchill Dew Point Humidity Pressure Visibility Wind Dir Wind Speed Gust Speed Precip Events Conditions
12:53 AM 54.0 °F - 51.1 °F 90% 30.13 in 10.0 mi South 5.8 mph - N/A   Clear
1:53 AM 54.0 °F - 50.0 °F 86% 30.13 in 10.0 mi South 6.9 mph - N/A   Clear
2:53 AM 55.0 °F - 50.0 °F 83% 30.14 in 10.0 mi SSW 4.6 mph - N/A   Clear
3:53 AM 53.1 °F - 48.9 °F 86% 30.13 in 10.0 mi SSW 3.5 mph - N/A   Scattered Clouds
4:53 AM 53.1 °F - 48.0 °F 83% 30.12 in 10.0 mi South 6.9 mph - N/A   Scattered Clouds
5:53 AM 54.0 °F - 48.0 °F 80% 30.11 in 10.0 mi South 5.8 mph - N/A   Partly Cloudy
6:53 AM 54.0 °F - 48.0 °F 80% 30.12 in 10.0 mi South 9.2 mph - N/A   Partly Cloudy
7:53 AM 55.0 °F - 48.0 °F 77% 30.12 in 10.0 mi South 8.1 mph - N/A   Mostly Cloudy
8:53 AM 57.0 °F - 48.9 °F 74% 30.12 in 10.0 mi South 8.1 mph - N/A   Overcast
9:53 AM 57.9 °F - 50.0 °F 75% 30.12 in 10.0 mi SSW 8.1 mph - N/A   Overcast
10:53 AM 60.1 °F - 51.1 °F 72% 30.10 in 10.0 mi South 12.7 mph - N/A   Mostly Cloudy
11:53 AM 61.0 °F - 52.0 °F 72% 30.08 in 10.0 mi SSW 15.0 mph - N/A   Overcast
12:31 PM 60.8 °F - 53.6 °F 77% 30.07 in 2.5 mi SSW 10.4 mph 17.3 mph 0.03 in Rain Rain
12:43 PM 59.0 °F - 53.6 °F 82% 30.06 in 4.0 mi SW 6.9 mph - 0.05 in Rain Rain
12:53 PM 59.0 °F - 55.0 °F 87% 30.05 in 5.0 mi SSW 6.9 mph - 0.06 in Rain Light Rain
1:14 PM 60.8 °F - 55.4 °F 82% 30.04 in 10.0 mi SSW 11.5 mph 18.4 mph 0.00 in   Overcast
1:50 PM 60.8 °F - 55.4 °F 82% 30.03 in 10.0 mi SSW 11.5 mph - 0.00 in   Overcast
1:53 PM 61.0 °F - 55.9 °F 83% 30.02 in 10.0 mi SSW 11.5 mph - 0.00 in   Overcast
2:53 PM 61.0 °F - 55.9 °F 83% 30.01 in 10.0 mi SSW 15.0 mph 19.6 mph 0.00 in   Overcast
3:53 PM 61.0 °F - 55.9 °F 83% 30.01 in 10.0 mi SSW 9.2 mph - N/A   Overcast
4:53 PM 61.0 °F - 55.9 °F 83% 30.00 in 10.0 mi SSW 11.5 mph - N/A   Overcast
5:53 PM 62.1 °F - 55.9 °F 80% 30.00 in 10.0 mi SW 12.7 mph 20.7 mph 0.01 in Rain Light Rain
6:27 PM 57.2 °F - 55.4 °F 94% 30.03 in 2.0 mi WNW 12.7 mph 23.0 mph 0.22 in Rain Heavy Rain
6:31 PM 57.2 °F - 53.6 °F 88% 30.04 in 1.5 mi WNW 9.2 mph 23.0 mph 0.28 in Rain Heavy Rain
6:41 PM 55.4 °F - 53.6 °F 94% 30.04 in 3.0 mi NW 12.7 mph 26.5 mph 0.32 in Rain Rain
6:53 PM 55.0 °F - 53.1 °F 93% 30.04 in 4.0 mi NW 15.0 mph 23.0 mph 0.37 in Rain Rain
7:08 PM 53.6 °F - 51.8 °F 94% 30.06 in 4.0 mi NW 11.5 mph - 0.06 in Rain Rain
7:18 PM 51.8 °F - 50.0 °F 94% 30.07 in 5.0 mi NW 11.5 mph - 0.09 in Rain Rain
7:38 PM 48.2 °F - 44.6 °F 87% 30.10 in 6.0 mi NW 15.0 mph 24.2 mph 0.14 in Rain Light Rain
7:48 PM 48.2 °F - 44.6 °F 87% 30.11 in 9.0 mi NNW 13.8 mph 25.3 mph 0.15 in Rain Light Rain
7:53 PM 46.9 °F - 43.0 °F 86% 30.11 in 7.0 mi North 10.4 mph 23.0 mph 0.16 in Rain Light Rain
8:02 PM 46.4 °F 42.4 °F 41.0 °F 81% 30.12 in 4.0 mi North 8.1 mph 19.6 mph 0.03 in Rain Rain
8:22 PM 44.6 °F 42.2 °F 41.0 °F 87% 30.13 in 4.0 mi North 4.6 mph - 0.10 in Rain Rain
8:26 PM 44.6 °F 42.2 °F 41.0 °F 87% 30.13 in 5.0 mi North 4.6 mph - 0.11 in Rain Light Rain
8:44 PM 44.6 °F 41.4 °F 39.2 °F 81% 30.14 in 6.0 mi NW 5.8 mph - 0.13 in Rain Light Rain
8:53 PM 43.0 °F 40.3 °F 39.9 °F 89% 30.14 in 7.0 mi NW 4.6 mph - 0.14 in Rain Light Rain
9:53 PM 43.0 °F - 41.0 °F 93% 30.15 in 10.0 mi Calm Calm - 0.03 in Rain Light Rain
10:53 PM 43.0 °F 41.3 °F 41.0 °F 93% 30.16 in 10.0 mi West 3.5 mph - 0.01 in   Partly Cloudy
11:53 PM 41.0 °F - 39.9 °F 96% 30.17 in 10.0 mi Calm Calm - N/A   Clear